Regional Weather Roundup
Issued by NWS Albany, NY

Home | Current Version | Previous Version | Text Only | Print | Product List | Glossary On
Versions: 1 2 3 4 5 6 7 8 9 10 11 12 13 14 15 16 17 18 19 20 21 22 23 24 25 26 27 28
000
ASUS41 KALY 211010
RWRALY

NEW YORK STATE HOURLY WEATHER ROUNDUP
NATIONAL WEATHER SERVICE ALBANY NY
600 AM EDT MON MAY 21 2018

NOTE: "FAIR" INDICATES FEW OR NO CLOUDS BELOW 12,000 FEET WITH NO
SIGNIFICANT WEATHER AND/OR NO OBSTRUCTIONS TO VISIBILITY.

NYZ032-033-038>043-046>054-057>066-NYZ062>081-082-084-211100-
EAST


CITY           SKY/WX    TMP DP  RH WIND       PRES   REMARKS
ALBANY         FAIR      49  46  90 CALM      30.16R
GLENS FALLS    FAIR      44  44 100 CALM      30.16R
POUGHKEEPSIE   FAIR      47  46  97 CALM      30.15R
NEWBURGH       CLEAR     50  50 100 CALM      30.17R
MONTGOMERY     FOG       47  46  97 CALM      30.15R VSB 1/4
WHITE PLAINS   FAIR      52  51  97 CALM      30.15R
ISLIP          FAIR      57  52  83 N7        30.13R
NEW YORK CITY  FAIR      61  52  72 N6        30.14R
CENTRAL PARK   FAIR      58  53  84 CALM      30.17R
$$

NYZ005>009-017-018-044>046-055-056-211100-
CENTRAL


CITY           SKY/WX    TMP DP  RH WIND       PRES   REMARKS
FULTON         FAIR      45  42  89 W5        30.20R
SYRACUSE       FAIR      45  45 100 CALM      30.19R
ROME           FOG       44  44 100 CALM      30.20R VSB 1/4
ELMIRA         FOG       52  52 100 CALM      30.21R VSB 1/4
BINGHAMTON     FAIR      48  46  93 NW5       30.19R
$$

NYZ026>034-041>043-087-211100-
NORTH


CITY           SKY/WX    TMP DP  RH WIND       PRES   REMARKS
WATERTOWN      FOG       37  37 100 CALM      30.19R VSB 1/4
FORT DRUM      NOT AVBL
OGDENSBURG     FAIR      46  46  99 S3        30.16R
MASSENA        FAIR      46  45  96 SW6       30.16R
SARANAC LAKE   FOG       30  30 100 CALM      30.15S VSB 3/4
PLATTSBURGH    FAIR      46  41  82 MISG      30.12R
$$

NYZ001>004-010>016-019>021-085-211100-
WEST


CITY           SKY/WX    TMP DP  RH WIND       PRES   REMARKS
NIAGARA FALLS  FAIR      46  40  79 CALM      30.23R
BUFFALO        FAIR      52  36  54 CALM      30.22R
DUNKIRK        FOG       47  47 100 CALM      30.22R VSB<1/4
JAMESTOWN      FOG       48  47  96 NE5       30.22R VSB<1/4
WELLSVILLE     FOG       51  51 100 N8        30.23R VSB 1/4
ROCHESTER      FAIR      47  46  97 W5        30.22R
PENN YAN       FAIR      51  46  83 SW6       30.22R
$$

             KEY
       WCI = WIND CHILL INDEX
       VSB = VISIBILITY
       HX  = HEAT INDEX
$$




USA.gov is the U.S. government's official web portal to all federal, state and local government web resources and services.